Погода Могилёв-Подольский

Погода Могилёв-Подольский : погода сейчас, прогноз погоды и архив. Всё, что Вы хотите узнать о погоде Могилёв-Подольский!

Хотите узнать прогноз погоды Могилёв-Подольский? Тогда Вам сюда: Погода Могилёв-Подольский

Поиск расширенной информации на нашем сайте:

Другие новости

Новости СМИ2

Главная страница сайта

Новости сайта

03.07.2017

Напоминаем, что на нашем специализированном сайте Метеоцентр.Азия вы можете получить высокодетализированные автоматические прогнозы погоды по пунктам России, СНГ и мира в авиационном формате (включающие направление и скорость ветра, видимость, явления погоды, количество и форму облачности, нижнюю и верхнюю границу облачности).


Погода Могилёв-Подольский - сегодня

Время (UTC), дата Ветер
(°,м/с) 
Видим.   Явления Облачность Т
(°С)
Тd
(°С)
f(%) Тe
(°С)
Pmin
(гПа)
dP
(гПа)
Po
(мм)
O2
(г/м3)
Тmin Tmax R s Состояние
почвы
09 11.12.17 080 (В) 20000 м    8/5 600 м средняя 
[Sc|Ac trans]
+1.4 -3.4 70 +2  1009.3  0.4  750  301           
12 11.12.17 120 (ЮВ) 20000 м  в посл. час ливневой дождь  9/5 600 м кучево-дожд., средняя 
[Cb calv|Ac trans]
+3.1 -1 74 +4  1009.3  750  299      0.0     
15 11.12.17 090 (В) 10 км    9/6 840 м средняя 
[Sc|Ac trans]
+3 -0.8 76 +2  1009  -0.3  749  299           
18 11.12.17 090 (В) 10 км    6/4 600 м средняя 
[Sc|Ac trans]
+3.2 +0.3 81 +3  1009.3  0.3  750  299      0.0     
21 11.12.17 110 (В) 10 км    8/0 средняя 
[Ac trans]
+3.1 +0.5 83 +4  1009.5  0.2  750  299           
00 12.12.17 150 (ЮВ) 10 км    5/0 средняя 
[Ac trans]
+4 +0.9 80 +5  1009.4  750  298           
03 12.12.17 110 (В) 10 км    8/5 600 м средняя 
[Sc|Ac trans]
+2.9 +0.2 82 +4  1009.5  750  299           
06 12.12.17 070 (В) 10 км    8/8 870 м 
[Sc]
+3.9 +0.5 78 +3  1009.5  0.1  750  298  +2.7      равномерный
мокрый или
старый снег
100% 
09 12.12.17 090 (В) 20000 м    9/0 средняя 
[Ac trans]
+6.4 +0.5 66 +6  1010.8  1.3  751  296           
12 12.12.17 130 (ЮВ) 20000 м    10/0 средняя 
[Ac und]
+7.6 +2.1 68 +9  1010.9  0.2  751  294           
15 12.12.17 тихо ()   10 км    10/0 средняя, верхняя 
[Ac trans|Ci sp]
+5.1 +1.9 80 +5  1012.1  1.1  752  297           
18 12.12.17 тихо ()   10 км    10/0 средняя 
[Ac und]
+2.1 +1.1 93 +2  1013.5  1.3  753  301    +7.8       
21 12.12.17 120 (ЮВ) 10 км    3/0 средняя 
[Ac trans]
+1.3 +0.2 92 +2  1014.1  0.5  753  302           
00 13.12.17 тихо ()   2000 м  дымка  ясно 
-0.2 -1.1 94 -0  1014.1  753  304           
03 13.12.17 тихо ()   2000 м  дымка  ясно 
-0.5 -1.1 96 -1  1014.1  753  304           
06 13.12.17 330 (СЗ) 4000 м  в посл. час туман  6/3 600 м средняя, верхняя 
[Sc|Ac trans|Ci fib]
-0.7 -1.3 96 1014.3  0.2  753  304  -1      <0.5  мокрый или
старый снег
10-40% 
09 13.12.17 340 (С) 10 км    10/5 600 м средняя 
[Sc|Ac und]
+1.6 +0.5 92 +2  1015.5  1.2  754  302         
12 13.12.17 320 (СЗ) 10 км    10/8 800 м средняя 
[Sc|Ac und]
+4.8 +2.8 87 +4  1015.4  754  298           
15 13.12.17 320 (СЗ) 10 км    10/8 750 м кучево-дожд., средняя 
[Cb calv|Ac und]
+4.1 +2.1 87 +5  1015.7  0.3  755  299           
18 13.12.17 320 (СЗ) 10 км  в посл. час ливневой дождь  10/6 600 м кучево-дожд., средняя 
[Cb calv|Ac und]
+2.8 +1.8 93 +2  1015.7  755  301    +4.9     
00 14.12.17 тихо ()   2000 м  слаб. ливневой дождь со снегом  10/10 660 м кучево-дожд. 
[Cb calv]
+1.6 +0.8 94 +2  1013.2  -1  753  301           
03 14.12.17 тихо ()   2000 м  дымка{ливн. осадки}  10/10 630 м 
[Sc]
+0.8 +0.3 96 +1  1011.6  -1.6  751  302           
06 14.12.17 тихо ()   4000 м  дымка{ливн. осадки}  10/10 600 м 
[Sc]
+1.3 +0.8 96 +1  1010.9  -0.6  751  301  +0.6       
09 14.12.17 180 (Ю) 4000 м  дымка  10/10 630 м 
[Sc]
+1.3 +0.8 96 +1  1010  -0.9  750  301           
12 14.12.17 180 (Ю) 4000 м  дымка  10/10 660 м 
[Sc]
+2.1 +1.6 96 +3  1008.4  -1.6  749  299           
Время (UTC), дата Ветер
(°,м/с) 
Видим.   Явления Облачность Т
(°С)
Тd
(°С)
f(%) Тe
(°С)
Pmin
(гПа)
dP
(гПа)
Po
(мм)
O2
(г/м3)
Тmin Tmax R s Состояние
почвы

Для получения пояснительной информации подведите курсор к названию столбца.

ПОГОДА Могилёв-Подольский - архив

Всё, что Вы хотите узнать о погоде Могилёв-Подольский - удобно и подробно!

Выберите нужную дату (начиная с 1 января 2015* года) и нажмите кнопку "Найти".
Будут отображены архивные сводки погоды по пункту Могилёв-Подольский, начиная с указанной даты.


Отображать данные в формате CSV (для использования в таблицах Excel)


Внимание! Наш архив погоды предназначен исключительно для личного некоммерческого использования в познавательных целях. Если Вам необходимы официальные справки о состоянии погоды (для производственных, юридических, коммерческих и т.п. целей), обращайтесь в органы Росгидромета.

*Примечание: данная дата относится к архиву по метеостанциям СССР (Россия, СНГ, Балтия).
Архив по метеостанциям Зарубежной Европы и Азии (кроме Китая) хранится 10 дней, по другим регионам земного шара (Китай, Африка, Америка, Австралия, Океания) - 1 день.

Могилёв-Подольский - район местоположения метеостанции


Название, широта, долгота, высота метеостанции:
Могилёв-Подольский 48.4°ш. 27.8°д. 78 м над ур. моря [Украина]

Дополнительная информация

В oтличие oт бoльшинства пoгoдных сайтoв мы публикуем пoдрoбную метеoинфoрмацию в детальнoм прoфессиoнальнoм фoрмате.

Характеристики температуры и влажнoсти вoздуха измеряются на высoте 2 м в тени вдали oт зданий и деревьев.
Скoрoсть ветра измеряется на высoте 10 м (на урoвне рoста челoвека скoрoсть ветра ниже в 1.5-2 раза). Если метеoстанция нахoдится в гoрoде или в лесу, тo скoрoсть ветра занижена на 2-4 м/с пo сравнению с oткрытым местoм. Скoрoсть ветра над акватoриями крупных рек и oзёр, а также на вершинах хoлмoв на 2-5 м/с выше, чем в oбычных услoвиях.
Атмoсфернoе давление в разных тoчках местнoсти мoжет значительнo oтличаться oт давления на метеoстанции, в зависимoсти oт услoвий рельефа (при пoдъёме на 10 м давление пoнижается примернo на 1 мм рт.ст.).